Home   Weather   Hopkinsville   Past weeks

Flag for USA Past Weather in Hopkinsville, Kentucky, USA — Yesterday and Last 2 Weeks

Now
62 °F

Low clouds.


Feels Like: 62 °F
Forecast: 59 / 69 °F
Wind: 10 mph from West

Location: Fort Campbell U. S. Army Airfield

Current Time: Oct 1, 2016 at 10:39:53 AM

Latest Report: Oct 1, 2016 at 9:58 AM


Visibility: 10 mi

Pressure: 30.07 "Hg

Humidity: 92%

Dew Point: 60 °F

Location of HopkinsvilleLocation

Past Weather in Hopkinsville — Graph

°F

Hopkinsville Temperature Yesterday

Maximum temperature yesterday: 67 °F (at 1:58 PM)
Minimum temperature yesterday: 55 °F (at 12:58 AM)
Average temperature yesterday: 60 °F

High & Low Weather Summary for the Past Weeks

 TemperatureHumidityPressure
High90 °F (Sep 16, 2:58 PM)100% (Sep 17, 6:58 AM)30.16 "Hg (Sep 17, 6:58 AM)
Low47 °F (Sep 29, 6:58 AM)29% (Sep 27, 1:58 PM)29.82 "Hg (Sep 28, 12:58 PM)
Average71 °F76%30.04 "Hg
* Reported Sep 16 8:58 AM — Oct 1 8:58 AM, Hopkinsville, Weather by CustomWeather, © 2016

Note: Actual official high and low records may vary slightly from our data, if they occured in-between our weather recording intervals... More about our weather records

Advertising

Hopkinsville Weather History for the Previous 24 Hours

Scroll right to see more
 ConditionsComfort  
Time TempWeatherWind HumidityBarometerVisibility
8:58 AM
Sat, Oct 1
62 °FMostly cloudy.10 mph96%30.06 "Hg10 mi
8:02 AM61 °FMostly cloudy.8 mph100%30.05 "Hg7 mi
7:58 AM61 °FMostly cloudy.9 mph100%30.05 "Hg8 mi
6:58 AM60 °FFog.8 mph100%30.04 "Hg3 mi
5:58 AM60 °FFog.7 mph100%30.02 "Hg5 mi
4:58 AM60 °FLow clouds.6 mph100%30.01 "Hg9 mi
4:01 AM59 °FDrizzle. Fog.6 mph100%30.01 "Hg5 mi
3:58 AM60 °FMostly cloudy.5 mph99%30.01 "Hg7 mi
2:59 AM59 °FMostly cloudy.6 mph100%30.01 "Hg10 mi
2:58 AM59 °FOvercast.5 mph99%30.01 "Hg10 mi
1:58 AM60 °FLow clouds.8 mph99%30.01 "Hg10 mi
12:58 AM60 °FMostly cloudy.6 mph100%30.02 "Hg10 mi
11:58 PM
Fri, Sep 30
60 °FLow clouds.5 mph100%30.01 "Hg10 mi
10:58 PM58 °FPassing clouds.6 mph99%30.02 "Hg10 mi
9:58 PM59 °FPassing clouds.8 mph98%30.02 "Hg10 mi
8:58 PM61 °FPartly cloudy.7 mph95%30.03 "Hg10 mi
8:04 PM61 °FLight rain. Mostly cloudy.No wind94%30.03 "Hg9 mi
7:58 PM61 °FDrizzle. Mostly cloudy.No wind92%30.03 "Hg10 mi
6:58 PM64 °FPartly cloudy.No wind88%30.00 "Hg10 mi
5:58 PM65 °FPartly cloudy.5 mph83%30.01 "Hg10 mi
4:58 PM65 °FScattered clouds.7 mph89%30.01 "Hg10 mi
3:58 PM62 °FMostly cloudy.6 mph92%30.02 "Hg10 mi
3:01 PM61 °FRain. Fog.8 mph94%30.02 "Hg2 mi
2:04 PM66 °FDrizzle. Broken clouds.14 mph68%30.01 "Hg8 mi
1:58 PM67 °FBroken clouds.8 mph64%30.01 "Hg10 mi
12:58 PM66 °FBroken clouds.12 mph71%30.04 "Hg10 mi
11:58 AM62 °FDrizzle. Overcast.10 mph84%30.05 "Hg10 mi
11:03 AM64 °FOvercast.13 mph78%30.05 "Hg10 mi
10:58 AM64 °FDrizzle. Overcast.14 mph77%30.05 "Hg10 mi
10:02 AM63 °FPartly sunny.14 mph83%30.05 "Hg10 mi
Weather by CustomWeather, © 2016

See weather overviewHow to use our weather pages